| time (UTC) | temp F | wind direction | speed MPH | gust MPH | rain 1hr in | rain 24hr in | rain mn in | humidity % | barometer mb |
| 20260507033027 | 56 | 281 | 0.0 | 4.0 | 0.05 | 1.94 | 1.94 | 97 | 1014.0 |
| 20260507032511 | 56 | 296 | 0.0 | 3.0 | 0.07 | 1.94 | 1.94 | 97 | 1014.6 |
| 20260507032008 | 56 | 303 | 0.0 | 3.0 | 0.08 | 1.94 | 1.94 | 97 | 1014.2 |
| 20260507031524 | 56 | 272 | 1.0 | 4.0 | 0.09 | 1.94 | 1.94 | 97 | 1013.7 |
| 20260507031014 | 57 | 329 | 1.0 | 4.0 | 0.09 | 1.94 | 1.94 | 97 | 1013.3 |
| 20260507030506 | 57 | 332 | 0.0 | 4.0 | 0.08 | 1.93 | 1.93 | 97 | 1013.5 |
| 20260507030021 | 57 | 278 | 1.0 | 4.0 | 0.08 | 1.93 | 1.93 | 97 | 1013.8 |
| 20260507024515 | 57 | 290 | 1.0 | 3.0 | 0.08 | 1.93 | 1.93 | 97 | 1013.7 |
| 20260507024005 | 57 | 26 | 0.0 | 3.0 | 0.08 | 1.93 | 1.93 | 97 | 1013.5 |
| 20260507023511 | 57 | 347 | 1.0 | 3.0 | 0.04 | 1.89 | 1.89 | 97 | 1013.7 |
| 20260507022511 | 58 | 274 | 0.0 | 2.0 | 0.02 | 1.87 | 1.87 | 97 | 1013.5 |
| 20260507022012 | 58 | 265 | 0.0 | 2.0 | 0.01 | 1.86 | 1.86 | 97 | 1013.7 |
| 20260507021524 | 58 | 264 | 0.0 | 1.0 | 0.00 | 1.85 | 1.85 | 97 | 1013.2 |
| 20260507021004 | 58 | 103 | 0.0 | 0.0 | 0.00 | 1.85 | 1.85 | 97 | 1013.4 |
| 20260507020024 | 58 | 293 | 0.0 | 1.0 | 0.00 | 1.85 | 1.85 | 97 | 1013.7 |
| 20260507015504 | 58 | 287 | 0.0 | 2.0 | 0.00 | 1.85 | 1.85 | 97 | 1013.5 |
| 20260507015009 | 58 | 82 | 0.0 | 2.0 | 0.00 | 1.85 | 1.85 | 97 | 1013.4 |
| 20260507013505 | 58 | 23 | 0.0 | 2.0 | 0.00 | 1.85 | 1.85 | 97 | 1013.1 |
| 20260507013023 | 58 | 280 | 0.0 | 0.0 | 0.00 | 1.85 | 1.85 | 97 | 1013.1 |
| 20260507012530 | 58 | 278 | 0.0 | 1.0 | 0.00 | 1.85 | 1.85 | 97 | 1013.1 |
| 20260507012011 | 58 | 11 | 0.0 | 2.0 | 0.00 | 1.85 | 1.85 | 97 | 1013.1 |
| 20260507011008 | 58 | 293 | 0.0 | 2.0 | 0.00 | 1.85 | 1.85 | 97 | 1013.2 |
| 20260507010507 | 58 | 85 | 0.0 | 2.0 | 0.00 | 1.85 | 1.85 | 97 | 1013.2 |
| 20260507010014 | 58 | 84 | 0.0 | 0.0 | 0.00 | 1.85 | 1.85 | 97 | 1013.2 |
| 20260507005505 | 59 | 23 | 0.0 | 0.0 | 0.00 | 1.85 | 1.85 | 97 | 1013.3 |
| 20260507004533 | 59 | 94 | 0.0 | 0.0 | 0.00 | 1.85 | 1.85 | 97 | 1013.8 |
| 20260507003510 | 59 | 122 | 0.0 | 0.0 | 0.01 | 1.85 | 1.85 | 97 | 1013.8 |
| 20260507002502 | 59 | 68 | 0.0 | 1.0 | 0.01 | 1.85 | 1.85 | 97 | 1013.6 |
| 20260507002007 | 59 | 276 | 0.0 | 1.0 | 0.02 | 1.85 | 1.85 | 97 | 1013.4 |
| 20260507001527 | 59 | 277 | 0.0 | 1.0 | 0.02 | 1.85 | 1.85 | 97 | 1013.5 |
| 20260507001011 | 60 | 13 | 0.0 | 4.0 | 0.02 | 1.85 | 1.85 | 97 | 1013.4 |
| 20260507000503 | 60 | 319 | 0.0 | 4.0 | 0.02 | 1.85 | 1.85 | 97 | 1013.4 |
| 20260507000026 | 60 | 281 | 0.0 | 6.0 | 0.02 | 1.85 | 1.85 | 97 | 1013.4 |
| 20260506235507 | 61 | 27 | 1.0 | 6.0 | 0.02 | 1.85 | 1.85 | 96 | 1013.4 |
| 20260506235009 | 61 | 323 | 1.0 | 3.0 | 0.02 | 1.85 | 1.85 | 97 | 1013.4 |
| 20260506233017 | 62 | 273 | 0.0 | 5.0 | 0.02 | 1.84 | 1.84 | 97 | 1013.7 |
| 20260506232507 | 62 | 286 | 0.0 | 5.0 | 0.04 | 1.84 | 1.84 | 97 | 1013.5 |
| 20260506232009 | 62 | 4 | 0.0 | 4.0 | 0.04 | 1.83 | 1.83 | 97 | 1013.1 |
| 20260506231007 | 63 | 300 | 0.0 | 6.0 | 0.05 | 1.83 | 1.83 | 97 | 1013.2 |
| 20260506230509 | 63 | 303 | 0.0 | 6.0 | 0.05 | 1.83 | 1.83 | 96 | 1013.4 |
| 20260506230007 | 63 | 291 | 2.0 | 6.0 | 0.05 | 1.83 | 1.83 | 96 | 1013.5 |
| 20260506225503 | 64 | 284 | 0.0 | 5.0 | 0.05 | 1.83 | 1.83 | 97 | 1013.3 |
| 20260506225007 | 64 | 273 | 0.0 | 5.0 | 0.05 | 1.83 | 1.83 | 96 | 1013.3 |
| 20260506224527 | 65 | 259 | 1.0 | 5.0 | 0.04 | 1.82 | 1.82 | 97 | 1013.0 |
| 20260506224003 | 65 | 290 | 1.0 | 5.0 | 0.04 | 1.82 | 1.82 | 97 | 1012.9 |
| 20260506223504 | 65 | 275 | 0.0 | 3.0 | 0.04 | 1.82 | 1.82 | 97 | 1012.8 |
| 20260506223034 | 65 | 297 | 0.0 | 2.0 | 0.07 | 1.82 | 1.82 | 97 | 1012.8 |
| 20260506222004 | 65 | 296 | 0.0 | 5.0 | 0.04 | 1.79 | 1.79 | 97 | 1012.8 |
| 20260506221519 | 65 | 297 | 0.0 | 5.0 | 0.03 | 1.78 | 1.78 | 97 | 1012.8 |
| 20260506221014 | 65 | 292 | 0.0 | 3.0 | 0.03 | 1.78 | 1.78 | 97 | 1012.8 |
| 20260506220504 | 65 | 307 | 0.0 | 2.0 | 0.03 | 1.78 | 1.78 | 97 | 1012.7 |
| 20260506220016 | 65 | 297 | 0.0 | 0.0 | 0.03 | 1.78 | 1.78 | 97 | 1012.7 |
| 20260506215514 | 65 | 302 | 0.0 | 0.0 | 0.04 | 1.78 | 1.78 | 97 | 1012.5 |
| 20260506215006 | 65 | 302 | 0.0 | 0.0 | 0.10 | 1.78 | 1.78 | 97 | 1012.4 |
| 20260506214515 | 65 | 302 | 0.0 | 0.0 | 0.14 | 1.78 | 1.78 | 97 | 1012.4 |
| 20260506213511 | 65 | 340 | 0.0 | 0.0 | 0.20 | 1.78 | 1.78 | 97 | 1012.1 |
| 20260506213011 | 65 | 342 | 0.0 | 0.0 | 0.18 | 1.75 | 1.75 | 97 | 1012.3 |
| 20260506212504 | 65 | 342 | 0.0 | 0.0 | 0.23 | 1.75 | 1.75 | 97 | 1012.3 |
| 20260506211532 | 65 | 343 | 0.0 | 0.0 | 0.32 | 1.75 | 1.75 | 97 | 1012.0 |
| 20260506211003 | 65 | 343 | 0.0 | 0.0 | 0.48 | 1.75 | 1.75 | 97 | 1012.0 |
| 20260506210507 | 65 | 294 | 0.0 | 0.0 | 0.56 | 1.75 | 1.75 | 97 | 1012.0 |
| 20260506210030 | 65 | 294 | 0.0 | 0.0 | 0.58 | 1.75 | 1.75 | 97 | 1012.2 |
| 20260506205504 | 65 | 308 | 0.0 | 0.0 | 0.58 | 1.74 | 1.74 | 97 | 1012.3 |
| 20260506204523 | 64 | 308 | 0.0 | 0.0 | 0.51 | 1.64 | 1.64 | 97 | 1012.0 |
| 20260506204009 | 64 | 349 | 0.0 | 0.0 | 0.50 | 1.62 | 1.62 | 97 | 1011.9 |
| 20260506203503 | 64 | 326 | 0.0 | 0.0 | 0.46 | 1.58 | 1.58 | 97 | 1011.9 |
| 20260506203025 | 64 | 326 | 0.0 | 0.0 | 0.45 | 1.57 | 1.57 | 96 | 1012.2 |
| 20260506202509 | 65 | 323 | 0.0 | 0.0 | 0.40 | 1.52 | 1.52 | 96 | 1012.3 |
| 20260506202004 | 65 | 323 | 0.0 | 0.0 | 0.36 | 1.48 | 1.48 | 96 | 1012.4 |
| 20260506201529 | 64 | 323 | 0.0 | 0.0 | 0.31 | 1.43 | 1.43 | 96 | 1012.5 |
| 20260506201010 | 65 | 285 | 0.0 | 0.0 | 0.18 | 1.27 | 1.27 | 96 | 1012.8 |
| 20260506200507 | 64 | 37 | 0.0 | 0.0 | 0.11 | 1.19 | 1.19 | 96 | 1012.2 |
| 20260506200013 | 64 | 37 | 0.0 | 0.0 | 0.09 | 1.16 | 1.16 | 96 | 1012.4 |
| 20260506195507 | 64 | 347 | 0.0 | 0.0 | 0.09 | 1.16 | 1.16 | 96 | 1012.6 |
| 20260506195008 | 64 | 304 | 0.0 | 0.0 | 0.07 | 1.13 | 1.13 | 96 | 1012.6 |
| 20260506193508 | 64 | 304 | 0.0 | 0.0 | 0.06 | 1.12 | 1.12 | 96 | 1012.8 |
| 20260506193024 | 64 | 319 | 0.0 | 0.0 | 0.07 | 1.12 | 1.12 | 96 | 1012.9 |
| 20260506192504 | 64 | 328 | 0.0 | 0.0 | 0.07 | 1.12 | 1.12 | 96 | 1012.9 |
| 20260506192007 | 64 | 328 | 0.0 | 0.0 | 0.07 | 1.12 | 1.12 | 95 | 1013.0 |
| 20260506191524 | 64 | 288 | 0.0 | 0.0 | 0.08 | 1.12 | 1.12 | 95 | 1013.4 |
| 20260506191011 | 64 | 288 | 0.0 | 0.0 | 0.07 | 1.09 | 1.09 | 96 | 1013.4 |
| 20260506190507 | 64 | 345 | 0.0 | 0.0 | 0.10 | 1.08 | 1.08 | 95 | 1013.5 |
| 20260506190022 | 64 | 299 | 0.0 | 0.0 | 0.17 | 1.08 | 1.08 | 95 | 1013.6 |
| 20260506185511 | 64 | 299 | 0.0 | 0.0 | 0.19 | 1.07 | 1.07 | 95 | 1013.7 |
| 20260506184517 | 64 | 299 | 0.0 | 0.0 | 0.21 | 1.05 | 1.05 | 95 | 1013.7 |
| 20260506184011 | 64 | 299 | 0.0 | 2.0 | 0.22 | 1.05 | 1.05 | 95 | 1013.6 |
| 20260506183511 | 64 | 299 | 0.0 | 2.0 | 0.24 | 1.05 | 1.05 | 95 | 1013.5 |
| 20260506182508 | 64 | 349 | 0.0 | 2.0 | 0.27 | 1.04 | 1.04 | 95 | 1013.9 |
| 20260506182011 | 63 | 287 | 0.0 | 3.0 | 0.40 | 1.04 | 1.04 | 95 | 1014.0 |
| 20260506181514 | 63 | 345 | 0.0 | 3.0 | 0.40 | 1.04 | 1.04 | 95 | 1014.0 |
| 20260506181005 | 63 | 26 | 1.0 | 6.0 | 0.38 | 1.02 | 1.02 | 94 | 1014.3 |
| 20260506180027 | 63 | 307 | 1.0 | 4.0 | 0.27 | 0.91 | 0.91 | 94 | 1015.0 |
| 20260506175504 | 64 | 352 | 0.0 | 2.0 | 0.26 | 0.88 | 0.88 | 94 | 1014.3 |
| 20260506175008 | 64 | 302 | 0.0 | 1.0 | 0.24 | 0.86 | 0.86 | 94 | 1014.2 |
| 20260506174525 | 64 | 302 | 0.0 | 2.0 | 0.23 | 0.85 | 0.85 | 93 | 1014.0 |
| 20260506174009 | 64 | 259 | 0.0 | 2.0 | 0.22 | 0.84 | 0.84 | 93 | 1014.0 |
| 20260506173505 | 64 | 28 | 0.0 | 5.0 | 0.20 | 0.82 | 0.82 | 92 | 1014.2 |
| 20260506173024 | 65 | 333 | 1.0 | 5.0 | 0.18 | 0.80 | 0.80 | 91 | 1014.8 |
| 20260506172508 | 66 | 276 | 0.0 | 12.0 | 0.16 | 0.78 | 0.78 | 90 | 1014.5 |
| 20260506172003 | 67 | 283 | 1.0 | 12.0 | 0.03 | 0.65 | 0.65 | 90 | 1014.7 |
| 20260506171526 | 68 | 313 | 0.0 | 1.0 | 0.02 | 0.64 | 0.64 | 93 | 1014.7 |
| 20260506171008 | 69 | 291 | 0.0 | 3.0 | 0.02 | 0.64 | 0.64 | 92 | 1014.1 |
| 20260506170515 | 69 | 118 | 0.0 | 3.0 | 0.02 | 0.64 | 0.64 | 92 | 1013.8 |
| 20260506165512 | 69 | 129 | 0.0 | 3.0 | 0.00 | 0.62 | 0.62 | 91 | 1013.8 |
| 20260506165011 | 69 | 148 | 0.0 | 3.0 | 0.00 | 0.62 | 0.62 | 90 | 1013.8 |
| 20260506164514 | 70 | 120 | 0.0 | 4.0 | 0.00 | 0.62 | 0.62 | 90 | 1013.9 |
| 20260506164011 | 69 | 191 | 0.0 | 4.0 | 0.00 | 0.62 | 0.62 | 90 | 1013.6 |
| 20260506163510 | 70 | 149 | 1.0 | 5.0 | 0.00 | 0.62 | 0.62 | 90 | 1013.7 |
| 20260506163028 | 70 | 74 | 0.0 | 5.0 | 0.00 | 0.62 | 0.62 | 90 | 1013.5 |
| 20260506162506 | 70 | 154 | 0.0 | 5.0 | 0.00 | 0.62 | 0.62 | 89 | 1013.2 |
| 20260506162016 | 70 | 198 | 2.0 | 5.0 | 0.00 | 0.62 | 0.62 | 88 | 1013.2 |
| 20260506161526 | 70 | 163 | 0.0 | 8.0 | 0.00 | 0.62 | 0.62 | 90 | 1013.2 |
| 20260506161003 | 70 | 119 | 1.0 | 8.0 | 0.00 | 0.62 | 0.62 | 90 | 1013.1 |
| 20260506160025 | 70 | 109 | 2.0 | 8.0 | 0.00 | 0.62 | 0.62 | 90 | 1013.1 |
| 20260506155510 | 70 | 125 | 4.0 | 7.0 | 0.01 | 0.62 | 0.62 | 90 | 1013.1 |
| 20260506155007 | 70 | 90 | 2.0 | 9.0 | 0.01 | 0.62 | 0.62 | 92 | 1013.2 |
| 20260506153020 | 69 | 195 | 1.0 | 7.0 | 0.01 | 0.62 | 0.62 | 92 | 1013.2 |
| 20260506152509 | 69 | 75 | 2.0 | 6.0 | 0.01 | 0.62 | 0.62 | 92 | 1013.1 |
| 20260506152012 | 69 | 121 | 2.0 | 6.0 | 0.01 | 0.62 | 0.62 | 93 | 1013.2 |
| 20260506151518 | 68 | 253 | 3.0 | 6.0 | 0.01 | 0.62 | 0.62 | 94 | 1013.0 |
| 20260506151005 | 68 | 127 | 2.0 | 6.0 | 0.01 | 0.62 | 0.62 | 94 | 1012.9 |
| 20260506150508 | 68 | 205 | 2.0 | 8.0 | 0.01 | 0.62 | 0.62 | 94 | 1012.9 |
| 20260506150026 | 67 | 124 | 1.0 | 8.0 | 0.01 | 0.62 | 0.62 | 95 | 1013.0 |
| 20260506145508 | 67 | 108 | 4.0 | 7.0 | 0.00 | 0.61 | 0.61 | 94 | 1013.0 |
| 20260506145412 | 66 | 163 | 2.0 | 5.0 | 0.00 | 0.61 | 0.61 | 95 | 1013.3 |
| 20260506145407 | 66 | 104 | 1.0 | 5.0 | 0.02 | 0.61 | 0.61 | 95 | 1013.4 |
| 20260506145359 | 65 | 143 | 3.0 | 6.0 | 0.39 | 0.61 | 0.61 | 95 | 1013.5 |
| 20260506145354 | 64 | 150 | 1.0 | 2.0 | 0.52 | 0.61 | 0.61 | 95 | 1013.5 |
| 20260506145352 | 64 | 147 | 0.0 | 2.0 | 0.55 | 0.61 | 0.61 | 95 | 1013.4 |
| 20260506145347 | 64 | 154 | 0.0 | 4.0 | 0.58 | 0.61 | 0.61 | 94 | 1013.5 |
| 20260506145343 | 64 | 115 | 0.0 | 3.0 | 0.61 | 0.61 | 0.61 | 94 | 1013.0 |
| 20260506145338 | 65 | 117 | 1.0 | 0.0 | 0.58 | 0.58 | 0.58 | 92 | 1013.7 |
| 20260506132510 | 65 | 309 | 1.0 | 6.0 | 0.52 | 0.52 | 0.52 | 92 | 1013.8 |
| 20260506131511 | 66 | 297 | 1.0 | 4.0 | 0.16 | 0.16 | 0.16 | 92 | 1014.3 |
| 20260506131010 | 66 | 354 | 0.0 | 2.0 | 0.08 | 0.08 | 0.08 | 91 | 1014.1 |
| 20260506130507 | 67 | 179 | 0.0 | 2.0 | 0.06 | 0.06 | 0.06 | 90 | 1013.6 |
| 20260506125506 | 67 | 181 | 0.0 | 3.0 | 0.02 | 0.02 | 0.02 | 88 | 1013.4 |
| 20260506125010 | 68 | 222 | 1.0 | 4.0 | 0.01 | 0.01 | 0.01 | 87 | 1013.2 |
| 20260506124508 | 68 | 104 | 2.0 | 4.0 | 0.00 | 0.00 | 0.00 | 86 | 1013.0 |
| 20260506124002 | 68 | 199 | 0.0 | 3.0 | 0.00 | 0.00 | 0.00 | 85 | 1013.3 |
| 20260506123508 | 68 | 107 | 0.0 | 5.0 | 0.00 | 0.00 | 0.00 | 84 | 1013.2 |
| 20260506123029 | 68 | 142 | 1.0 | 5.0 | 0.00 | 0.00 | 0.00 | 84 | 1013.1 |
| 20260506122504 | 68 | 129 | 1.0 | 5.0 | 0.00 | 0.00 | 0.00 | 83 | 1013.0 |
| 20260506122011 | 68 | 160 | 2.0 | 5.0 | 0.00 | 0.00 | 0.00 | 83 | 1012.8 |
| 20260506121524 | 68 | 127 | 0.0 | 4.0 | 0.00 | 0.00 | 0.00 | 83 | 1012.5 |
| 20260506121011 | 68 | 121 | 0.0 | 4.0 | 0.00 | 0.00 | 0.00 | 83 | 1012.3 |
| 20260506120025 | 68 | 233 | 0.0 | 5.0 | 0.00 | 0.00 | 0.00 | 82 | 1012.0 |
| 20260506115508 | 68 | 131 | 1.0 | 6.0 | 0.00 | 0.00 | 0.00 | 82 | 1012.1 |
| 20260506115005 | 68 | 98 | 1.0 | 6.0 | 0.00 | 0.00 | 0.00 | 82 | 1012.1 |
| 20260506114517 | 68 | 118 | 1.0 | 3.0 | 0.00 | 0.00 | 0.00 | 82 | 1012.0 |
| 20260506114011 | 68 | 117 | 0.0 | 4.0 | 0.00 | 0.00 | 0.00 | 82 | 1012.0 |
| 20260506113508 | 68 | 134 | 1.0 | 4.0 | 0.00 | 0.00 | 0.00 | 82 | 1011.9 |
| 20260506113018 | 68 | 149 | 1.0 | 6.0 | 0.00 | 0.00 | 0.00 | 81 | 1011.9 |
| 20260506112506 | 68 | 128 | 2.0 | 6.0 | 0.00 | 0.00 | 0.00 | 81 | 1011.7 |
| 20260506112011 | 68 | 139 | 1.0 | 5.0 | 0.00 | 0.00 | 0.00 | 81 | 1011.5 |
| 20260506111507 | 68 | 117 | 0.0 | 4.0 | 0.00 | 0.00 | 0.00 | 81 | 1011.4 |
| 20260506111010 | 68 | 153 | 1.0 | 5.0 | 0.00 | 0.00 | 0.00 | 81 | 1011.3 |
| 20260506110507 | 68 | 86 | 2.0 | 8.0 | 0.00 | 0.00 | 0.00 | 80 | 1011.4 |
| 20260506110025 | 68 | 119 | 2.0 | 8.0 | 0.00 | 0.00 | 0.00 | 80 | 1011.4 |
| 20260506105505 | 68 | 144 | 1.0 | 4.0 | 0.00 | 0.00 | 0.00 | 80 | 1011.3 |
| 20260506105005 | 68 | 209 | 0.0 | 3.0 | 0.00 | 0.00 | 0.00 | 80 | 1011.4 |
| 20260506104522 | 68 | 118 | 1.0 | 3.0 | 0.00 | 0.00 | 0.00 | 80 | 1011.4 |
| 20260506104010 | 68 | 113 | 0.0 | 3.0 | 0.00 | 0.00 | 0.00 | 80 | 1011.3 |
| 20260506103507 | 69 | 139 | 2.0 | 3.0 | 0.00 | 0.00 | 0.00 | 80 | 1011.2 |
| 20260506103022 | 69 | 98 | 0.0 | 4.0 | 0.00 | 0.00 | 0.00 | 80 | 1011.3 |
| 20260506102510 | 69 | 105 | 1.0 | 6.0 | 0.00 | 0.00 | 0.00 | 79 | 1011.1 |
| 20260506102005 | 69 | 127 | 2.0 | 6.0 | 0.00 | 0.00 | 0.00 | 79 | 1011.0 |
| 20260506101010 | 69 | 103 | 1.0 | 8.0 | 0.00 | 0.00 | 0.00 | 79 | 1010.9 |
| 20260506100508 | 69 | 121 | 2.0 | 7.0 | 0.00 | 0.00 | 0.00 | 79 | 1011.0 |
| 20260506100016 | 69 | 104 | 1.0 | 5.0 | 0.00 | 0.00 | 0.00 | 78 | 1010.9 |
| 20260506095007 | 69 | 84 | 0.0 | 5.0 | 0.00 | 0.00 | 0.00 | 78 | 1010.5 |
| 20260506094509 | 69 | 119 | 2.0 | 8.0 | 0.00 | 0.00 | 0.00 | 77 | 1010.5 |
| 20260506094005 | 69 | 205 | 2.0 | 8.0 | 0.00 | 0.00 | 0.00 | 77 | 1010.5 |
| 20260506093503 | 69 | 110 | 1.0 | 4.0 | 0.00 | 0.00 | 0.00 | 77 | 1010.6 |
| 20260506093010 | 69 | 200 | 1.0 | 5.0 | 0.00 | 0.00 | 0.00 | 77 | 1010.7 |
| 20260506092504 | 69 | 201 | 0.0 | 5.0 | 0.00 | 0.00 | 0.00 | 77 | 1010.7 |
| 20260506091514 | 69 | 110 | 2.0 | 7.0 | 0.00 | 0.00 | 0.00 | 76 | 1010.6 |
| 20260506091003 | 69 | 221 | 1.0 | 7.0 | 0.00 | 0.00 | 0.00 | 76 | 1010.7 |
| 20260506090508 | 69 | 118 | 1.0 | 4.0 | 0.00 | 0.00 | 0.00 | 75 | 1010.7 |
| 20260506090040 | 69 | 125 | 1.0 | 4.0 | 0.00 | 0.00 | 0.00 | 75 | 1010.6 |
| 20260506084523 | 69 | 123 | 0.0 | 8.0 | 0.00 | 0.00 | 0.00 | 74 | 1010.6 |
| 20260506084004 | 69 | 124 | 2.0 | 8.0 | 0.00 | 0.00 | 0.00 | 74 | 1010.6 |
| 20260506083504 | 69 | 149 | 2.0 | 7.0 | 0.00 | 0.00 | 0.00 | 74 | 1010.8 |
| 20260506083015 | 69 | 182 | 2.0 | 7.0 | 0.00 | 0.00 | 0.00 | 73 | 1010.7 |
| 20260506082002 | 70 | 146 | 0.0 | 5.0 | 0.00 | 0.00 | 0.00 | 72 | 1010.7 |
| 20260506081513 | 70 | 169 | 2.0 | 8.0 | 0.00 | 0.00 | 0.00 | 72 | 1010.7 |
| 20260506080503 | 70 | 84 | 2.0 | 6.0 | 0.00 | 0.00 | 0.00 | 72 | 1010.5 |
| 20260506073509 | 70 | 122 | 2.0 | 8.0 | 0.00 | 0.00 | 0.00 | 70 | 1010.6 |
| 20260506073024 | 70 | 111 | 2.0 | 7.0 | 0.00 | 0.00 | 0.00 | 70 | 1010.6 |
| 20260506072508 | 70 | 95 | 2.0 | 7.0 | 0.00 | 0.00 | 0.00 | 70 | 1010.7 |
| 20260506072008 | 70 | 134 | 2.0 | 6.0 | 0.00 | 0.00 | 0.00 | 70 | 1010.6 |
| 20260506071003 | 70 | 129 | 3.0 | 9.0 | 0.00 | 0.00 | 0.00 | 69 | 1010.3 |
| 20260506070503 | 70 | 198 | 2.0 | 10.0 | 0.00 | 0.00 | 0.00 | 69 | 1010.3 |
| 20260506062010 | 71 | 73 | 1.0 | 8.0 | 0.00 | 0.00 | 0.00 | 69 | 1010.5 |
| 20260506061512 | 71 | 151 | 2.0 | 8.0 | 0.00 | 0.00 | 0.00 | 68 | 1010.9 |
| 20260506061008 | 71 | 124 | 1.0 | 5.0 | 0.00 | 0.00 | 0.00 | 68 | 1010.9 |
| 20260506060507 | 71 | 124 | 1.0 | 5.0 | 0.00 | 0.00 | 0.00 | 68 | 1010.9 |
| 20260506051008 | 70 | 128 | 2.0 | 3.0 | 0.00 | 0.00 | 0.00 | 66 | 1011.4 |
| 20260506050506 | 70 | 127 | 1.0 | 3.0 | 0.00 | 0.00 | 0.00 | 66 | 1011.5 |
| 20260506044520 | 70 | 217 | 2.0 | 4.0 | 0.00 | 0.00 | 0.00 | 66 | 1011.5 |
| 20260506044004 | 70 | 149 | 0.0 | 3.0 | 0.00 | 0.00 | 0.00 | 66 | 1011.5 |
| 20260506043508 | 70 | 129 | 0.0 | 3.0 | 0.00 | 0.00 | 0.00 | 66 | 1011.6 |
| 20260506043019 | 70 | 112 | 1.0 | 3.0 | 0.00 | 0.00 | 0.00 | 66 | 1011.6 |
| 20260506042505 | 71 | 130 | 0.0 | 6.0 | 0.00 | 0.00 | 0.00 | 66 | 1011.7 |
| 20260506042008 | 71 | 130 | 1.0 | 6.0 | 0.00 | 0.00 | 0.00 | 66 | 1011.7 |
| 20260506041526 | 71 | 124 | 0.0 | 5.0 | 0.00 | 0.00 | 0.00 | 66 | 1011.6 |
| 20260506041003 | 71 | 160 | 1.0 | 5.0 | 0.00 | 0.00 | 0.00 | 66 | 1011.7 |
| 20260506040022 | 71 | 209 | 0.0 | 3.0 | 0.00 | 0.00 | 0.00 | 66 | 1011.7 |
| 20260506035508 | 71 | 100 | 0.0 | 6.0 | 0.00 | 0.00 | 0.00 | 66 | 1011.7 |
| 20260506035009 | 71 | 192 | 0.0 | 6.0 | 0.00 | 0.00 | 0.00 | 65 | 1011.7 |
| 20260506034526 | 71 | 146 | 1.0 | 6.0 | 0.00 | 0.00 | 0.00 | 65 | 1011.7 |
| 20260506034007 | 71 | 210 | 0.0 | 6.0 | 0.00 | 0.00 | 0.00 | 65 | 1011.7 |
| 20260506033504 | 71 | 196 | 0.0 | 6.0 | 0.00 | 0.00 | 0.00 | 65 | 1011.8 |